Terminal Aerodrome Forecast
Issued by NWS Medford, OR

Home | Current Version | Previous Version | Text Only | Print | Product List | Glossary On
Versions: 1 2 3 4 5 6 7 8 9 10 11 12 13 14 15 16 17 18 19 20 21 22 23 24
000
FTUS46 KMFR 271749
TAFMFR
TAF
KMFR 271749Z 2718/2818 00000KT P6SM FEW006 OVC060
     FM272200 30008KT P6SM -SHRA SCT025 OVC040
     FM280300 VRB03KT P6SM -SHRASN BKN025 OVC040=

USA.gov is the U.S. government's official web portal to all federal, state and local government web resources and services.